When you browse on this site, cookies collect data to enhance your experience and personalize the content and advertising you see.
Visit our Privacy Policy to learn more. By continuing to use the site, you agree to this use of cookies and data.
  • In Netherlands
  • List of Countries
  • For 7 days
  • Water Temperature
  • Satellite Maps
  • Weather Map
  • Weather Widgets
  • user-avatar
    Login

    Hourly Weather Yulara

    Today, 17 January, Thursday

    Time Temperature Precipitation Wind Pressure Humidity
    00:00 +39°C° 0 mm 3 mps 712 mmHg 18%
    01:00 +38°C° 0 mm 3 mps 712 mmHg 19%
    02:00 +37°C° 0 mm 3 mps 711 mmHg 20%
    03:00 +36°C° 0 mm 3 mps 711 mmHg 21%
    04:00 +36°C° 0 mm 3 mps 711 mmHg 21%
    05:00 +35°C° 0 mm 3 mps 711 mmHg 22%
    06:00 +35°C° 0 mm 3 mps 711 mmHg 22%
    07:00 +37°C° 0 mm 4 mps 712 mmHg 22%
    08:00 +40°C° 0 mm 5 mps 712 mmHg 21%
    09:00 +42°C° 0 mm 6 mps 712 mmHg 21%
    10:00 +45°C° 0 mm 5 mps 712 mmHg 18%
    11:00 +46°C° 0 mm 5 mps 712 mmHg 16%
    12:00 +47°C° 0 mm 5 mps 711 mmHg 14%
    13:00 +47°C° 0 mm 4 mps 711 mmHg 14%
    14:00 +47°C° 0 mm 4 mps 710 mmHg 13%
    15:00 +46°C° 0 mm 3 mps 710 mmHg 13%
    16:00 +46°C° 0 mm 3 mps 710 mmHg 13%
    17:00 +46°C° 0 mm 3 mps 710 mmHg 13%
    18:00 +47°C° 0 mm 4 mps 710 mmHg 13%
    19:00 +44°C° 0.2 mm 3 mps 710 mmHg 15%
    20:00 +42°C° 0.2 mm 3 mps 710 mmHg 18%
    21:00 +39°C° 0.2 mm 3 mps 710 mmHg 20%
    22:00 +38°C° 0.8 mm 3 mps 711 mmHg 23%
    23:00 +37°C° 0.8 mm 4 mps 711 mmHg 27%

    Tomorrow, 18 January, Friday

    Time Temperature Precipitation Wind Pressure Humidity
    00:00 +35°C° 0.8 mm 4 mps 711 mmHg 30%
    01:00 +35°C° 0.3 mm 4 mps 711 mmHg 30%
    02:00 +35°C° 0.3 mm 4 mps 711 mmHg 31%
    03:00 +34°C° 0.3 mm 4 mps 711 mmHg 32%
    04:00 +33°C° 1.1 mm 4 mps 711 mmHg 35%
    05:00 +32°C° 1.1 mm 5 mps 712 mmHg 38%
    06:00 +30°C° 1.1 mm 5 mps 712 mmHg 41%
    07:00 +32°C° 1 mm 6 mps 713 mmHg 39%
    08:00 +34°C° 1 mm 6 mps 713 mmHg 37%
    09:00 +35°C° 1 mm 7 mps 714 mmHg 35%
    10:00 +36°C° 1.3 mm 6 mps 714 mmHg 33%
    11:00 +38°C° 1.3 mm 6 mps 714 mmHg 30%
    12:00 +39°C° 1.3 mm 6 mps 714 mmHg 28%
    13:00 +40°C° 0.5 mm 6 mps 714 mmHg 27%
    14:00 +40°C° 0.5 mm 7 mps 714 mmHg 26%
    15:00 +41°C° 0.5 mm 7 mps 713 mmHg 25%
    16:00 +39°C° 1.8 mm 6 mps 714 mmHg 32%
    17:00 +35°C° 1.8 mm 5 mps 714 mmHg 40%
    18:00 +33°C° 1.8 mm 4 mps 714 mmHg 47%
    19:00 +32°C° 1.6 mm 6 mps 715 mmHg 50%
    20:00 +31°C° 1.6 mm 8 mps 715 mmHg 53%
    21:00 +29°C° 1.6 mm 9 mps 716 mmHg 56%
    22:00 +28°C° 0.6 mm 9 mps 716 mmHg 57%
    23:00 +28°C° 0.6 mm 9 mps 716 mmHg 58%

    Day after tomorrow, 19 January, Saturday

    Time Temperature Precipitation Wind Pressure Humidity
    00:00 +27°C° 0.6 mm 9 mps 717 mmHg 58%
    01:00 +27°C° 0.1 mm 9 mps 716 mmHg 58%
    02:00 +27°C° 0.1 mm 8 mps 716 mmHg 58%
    03:00 +27°C° 0.1 mm 8 mps 715 mmHg 57%
    04:00 +27°C° 0.5 mm 7 mps 716 mmHg 57%
    05:00 +27°C° 0.5 mm 6 mps 716 mmHg 56%
    06:00 +27°C° 0.5 mm 5 mps 717 mmHg 56%
    07:00 +27°C° 0.1 mm 5 mps 717 mmHg 53%
    08:00 +27°C° 0.1 mm 6 mps 717 mmHg 51%
    09:00 +27°C° 0.1 mm 6 mps 718 mmHg 48%
    10:00 +29°C° 0 mm 6 mps 718 mmHg 44%
    11:00 +32°C° 0 mm 6 mps 718 mmHg 39%
    12:00 +34°C° 0 mm 6 mps 718 mmHg 35%
    13:00 +36°C° 0 mm 5 mps 717 mmHg 32%
    14:00 +39°C° 0 mm 5 mps 717 mmHg 28%
    15:00 +40°C° 0 mm 5 mps 716 mmHg 25%
    16:00 +41°C° 0 mm 6 mps 716 mmHg 25%
    17:00 +41°C° 0 mm 7 mps 716 mmHg 25%
    18:00 +41°C° 0 mm 7 mps 716 mmHg 24%
    19:00 +39°C° 0.3 mm 7 mps 716 mmHg 27%
    20:00 +38°C° 0.3 mm 6 mps 717 mmHg 30%
    21:00 +35°C° 0.3 mm 6 mps 717 mmHg 33%
    22:00 +33°C° 2.2 mm 6 mps 717 mmHg 40%
    23:00 +30°C° 2.2 mm 6 mps 717 mmHg 47%

    20 January, Sunday

    Time Temperature Precipitation Wind Pressure Humidity
    00:00 +28°C° 2.2 mm 6 mps 717 mmHg 54%
    01:00 +28°C° 1.5 mm 8 mps 717 mmHg 57%
    02:00 +27°C° 1.5 mm 9 mps 717 mmHg 59%
    03:00 +27°C° 1.5 mm 11 mps 717 mmHg 62%
    04:00 +27°C° 0 mm 10 mps 717 mmHg 60%
    05:00 +27°C° 0 mm 10 mps 717 mmHg 58%
    06:00 +27°C° 0 mm 9 mps 717 mmHg 56%
    07:00 +29°C° 0 mm 9 mps 718 mmHg 52%
    08:00 +31°C° 0 mm 9 mps 718 mmHg 48%
    09:00 +32°C° 0 mm 9 mps 718 mmHg 43%
    10:00 +33°C° 0 mm 9 mps 718 mmHg 40%
    11:00 +35°C° 0 mm 9 mps 718 mmHg 36%
    12:00 +37°C° 0 mm 9 mps 718 mmHg 33%
    13:00 +38°C° 0 mm 8 mps 717 mmHg 30%
    14:00 +39°C° 0 mm 8 mps 716 mmHg 27%
    15:00 +40°C° 0 mm 8 mps 716 mmHg 25%
    16:00 +40°C° 0 mm 8 mps 716 mmHg 24%
    17:00 +40°C° 0 mm 7 mps 716 mmHg 24%
    18:00 +41°C° 0 mm 7 mps 716 mmHg 23%
    19:00 +39°C° 0 mm 8 mps 716 mmHg 27%
    20:00 +37°C° 0 mm 8 mps 716 mmHg 31%
    21:00 +35°C° 0 mm 9 mps 717 mmHg 35%
    22:00 +34°C° 0 mm 9 mps 717 mmHg 36%
    23:00 +33°C° 0 mm 9 mps 717 mmHg 38%

    21 January, Monday

    Time Temperature Precipitation Wind Pressure Humidity
    00:00 +33°C° 0 mm 8 mps 717 mmHg 40%
    01:00 +32°C° 0 mm 8 mps 716 mmHg 40%
    02:00 +32°C° 0 mm 7 mps 716 mmHg 41%
    03:00 +32°C° 0 mm 7 mps 715 mmHg 41%
    04:00 +32°C° 0 mm 7 mps 715 mmHg 41%
    05:00 +32°C° 0 mm 7 mps 715 mmHg 41%
    06:00 +32°C° 0 mm 6 mps 716 mmHg 41%
    07:00 +33°C° 0 mm 7 mps 716 mmHg 38%
    08:00 +35°C° 0 mm 7 mps 716 mmHg 35%
    09:00 +37°C° 0 mm 8 mps 716 mmHg 32%
    10:00 +39°C° 0 mm 7 mps 716 mmHg 27%
    11:00 +41°C° 0 mm 6 mps 716 mmHg 23%
    12:00 +43°C° 0 mm 5 mps 715 mmHg 18%
    13:00 +45°C° 0 mm 5 mps 714 mmHg 16%
    14:00 +44°C° 0 mm 4 mps 714 mmHg 15%
    15:00 +45°C° 0 mm 4 mps 713 mmHg 13%
    16:00 +45°C° 0 mm 4 mps 713 mmHg 13%
    17:00 +44°C° 0 mm 4 mps 713 mmHg 14%
    18:00 +44°C° 0 mm 4 mps 713 mmHg 14%
    19:00 +43°C° 0 mm 4 mps 713 mmHg 14%
    20:00 +42°C° 0 mm 4 mps 714 mmHg 15%
    21:00 +41°C° 0 mm 4 mps 714 mmHg 16%
    22:00 +40°C° 0 mm 4 mps 714 mmHg 16%
    23:00 +40°C° 0 mm 4 mps 713 mmHg 17%

    22 January, Tuesday

    Time Temperature Precipitation Wind Pressure Humidity
    00:00 +38°C° 0 mm 4 mps 713 mmHg 18%
    01:00 +37°C° 0 mm 4 mps 713 mmHg 18%
    02:00 +37°C° 0 mm 4 mps 713 mmHg 19%
    03:00 +36°C° 0 mm 4 mps 712 mmHg 19%
    04:00 +35°C° 0 mm 4 mps 713 mmHg 20%
    05:00 +34°C° 0 mm 3 mps 713 mmHg 20%
    06:00 +34°C° 0 mm 3 mps 713 mmHg 21%
    07:00 +36°C° 0 mm 4 mps 714 mmHg 20%
    08:00 +39°C° 0 mm 6 mps 714 mmHg 19%
    09:00 +41°C° 0 mm 7 mps 715 mmHg 17%
    10:00 +43°C° 0 mm 7 mps 714 mmHg 16%
    11:00 +44°C° 0 mm 6 mps 714 mmHg 14%
    12:00 +46°C° 0 mm 6 mps 714 mmHg 12%
    13:00 +46°C° 0 mm 5 mps 713 mmHg 12%
    14:00 +46°C° 0 mm 5 mps 712 mmHg 12%
    15:00 +45°C° 0 mm 4 mps 712 mmHg 12%
    16:00 +45°C° 0 mm 4 mps 712 mmHg 12%
    17:00 +44°C° 0 mm 4 mps 712 mmHg 12%
    18:00 +44°C° 0 mm 4 mps 711 mmHg 12%
    19:00 +43°C° 0 mm 3 mps 712 mmHg 13%
    20:00 +42°C° 0 mm 3 mps 712 mmHg 14%
    21:00 +40°C° 0 mm 2 mps 712 mmHg 15%
    22:00 +39°C° 0 mm 2 mps 712 mmHg 16%
    23:00 +38°C° 0 mm 3 mps 712 mmHg 17%
    Show more